Tracking 19832 objects as of 26-Aug-2019
HD Live streaming from Space Station
objects crossing your sky now

ASTRO H DEB

Track ASTRO H DEB now!
10-day predictions


NORAD ID: 42675
Int'l Code: 2016-012T
Perigee: 538.6 km
Apogee: 544.7 km
Inclination: 31.0 °
Period: 95.3 minutes
Semi major axis: 6912 km
RCS: Unknown
Launch date: February 17, 2016
Source: Japan (JPN)
Launch site: TANEGASHIMA SPACE CENTER (TNSTA)

Note: This is SATELLITE DEBRIS
aabbcc
Your satellite tracking list
Your tracking list is empty




NASA's NSSDC Master Catalog

Two Line Element Set (TLE):
1 42675U 16012T   19236.54060094  .00002816  00000-0  16100-3 0  9991
2 42675  31.0137  18.1267 0004404 125.9972 234.1075 15.10553769141508
Source of the keplerian elements: AFSPC